EHI
0 0 0 0 0 0 0 0 0 0 0 0 0 0 0 0 0 0 0 1 2 3 1 0 1 2 4 5 6 6 5 5 4 3 3 3 2 1 0 0 0 0 0 0
0 0 0 0 0 0 0 0 0 0 0 0 0 0 0 0 0 0 0 1 2 3 2 1 1 2 3 4 5 5 5 4 4 3 3 3 1 0 0 0 0 0 0 0
0 0 0 0 0 0 0 0 0 0 0 0 0 0 0 0 0 0 0 0 1 2 3 2 1 1 2 2 2 2 2 2 3 3 3 2 1 1 1 1 0 0 0 0
0 0 0 0 0 0 0 0 0 0 0 0 0 0 0 0 0 0 0 0 0 1 2 2 1 1 2 2 1 0 0 1 2 3 2 1 0 1 2 1 0 1 1 1
0 0 0 0 0 0 0 0 0 0 0 0 0 0 0 0 0 0 0 0 0 0 1 2 2 2 2 2 1 0 0 1 2 2 1 0 0 1 2 1 1 1 2 1
0 0 0 0 0 0 0 0 0 0 0 0 0 0 0 0 0 0 0 0 1 1 1 2 2 1 1 1 0 0 0 0 1 1 0 0 0 1 2 2 2 2 2 1
0 0 0 0 0 0 0 0 0 0 0 0 0 0 0 0 0 0 0 1 2 2 3 3 2 1 0 0 0 0 0 0 0 0 0 0 0 2 2 2 2 2 1 0
0 0 0 0 0 0 0 0 0 0 0 0 0 0 0 0 0 0 0 1 2 3 3 3 2 1 0 0 0 0 0 0 0 0 0 0 1 1 2 2 1 1 0 0
0 0 0 0 0 0 0 0 0 0 0 0 0 0 0 0 0 0 0 1 2 2 2 1 1 0 0 0 0 0 0 0 0 0 0 0 1 1 1 1 1 1 1 0
0 0 0 0 0 0 0 0 0 0 0 0 0 0 0 0 0 0 0 0 1 1 1 0 0 0 0 0 0 0 0 0 0 0 0 0 0 0 0 1 1 2 1 0
0 0 0 0 0 0 0 0 0 0 0 0 0 0 0 0 0 0 0 0 0 0 0 0 0 0 0 0 0 0 0 0 0 0 0 0 0 0 0 0 1 2 1 0
0 0 0 0 0 0 0 0 0 0 0 0 0 0 0 0 0 0 0 0 0 0 0 0 0 0 0 0 0 0 0 0 0 0 0 0 0 0 0 0 1 1 0 0
0 0 0 0 0 0 0 0 0 0 0 0 0 0 0 0 0 0 0 0 0 0 0 0 0 0 0 0 0 0 0 0 0 0 0 0 0 0 0 0 0 0 0 0
0 0 0 0 0 0 0 0 0 0 0 0 0 0 0 0 0 0 0 0 0 0 0 0 0 0 0 0 0 0 0 0 0 0 0 0 0 0 0 0 0 0 0 0
0 0 0 0 0 0 0 0 0 0 0 0 0 0 0 0 0 0 0 0 0 0 0 0 0 0 0 0 0 0 0 0 0 0 0 0 0 0 0 0 0 0 0 0
0 0 0 0 0 0 0 0 0 0 0 0 0 0 0 0 0 0 0 0 0 0 0 0 0 0 0 0 0 0 0 0 0 0 0 0 0 0 0 0 0 0 0 0
0 0 0 0 0 0 0 0 0 0 0 0 0 0 0 0 0 0 0 0 0 0 0 0 0 0 0 0 0 0 0 0 0 0 0 0 0 0 0 0 0 0 0 0
0 0 0 0 0 0 0 0 0 0 0 0 0 0 0 0 0 0 0 0 0 0 0 0 0 0 0 0 0 0 0 0 0 0 0 0 0 0 0 0 0 0 0 0
0 0 0 0 0 0 0 0 0 0 0 0 0 0 0 0 0 0 0 0 0 0 0 0 0 0 0 0 0 0 0 0 0 0 0 0 0 0 0 0 0 0 0 0
0 0 0 0 0 0 0 0 0 0 0 0 0 0 0 0 0 0 0 0 0 0 0 0 0 0 0 0 0 0 0 0 0 0 0 0 0 0 0 0 0 0 0 0
0 0 0 0 0 0 0 0 0 0 0 0 0 0 0 0 0 0 0 0 0 0 0 0 0 0 0 0 0 0 0 0 0 0 0 0 0 0 0 0 0 0 0 0
0 0 0 0 0 0 0 0 0 0 0 0 0 0 0 0 0 0 0 0 0 0 0 0 0 0 0 0 0 0 0 0 0 0 0 0 0 0 0 0 0 0 0 0
0 0 0 0 0 0 0 0 0 0 0 0 0 0 0 0 0 0 0 0 0 0 0 0 0 0 0 0 0 0 0 0 0 0 0 0 0 0 0 0 0 0 0 0
0 0 0 0 0 0 0 0 0 0 0 0 0 0 0 0 0 0 0 0 0 0 0 0 0 0 0 0 0 0 0 0 0 0 0 0 0 0 0 0 0 0 0 0
0 0 0 0 0 0 0 0 0 0 0 0 0 0 0 0 0 0 0 0 0 0 0 0 0 0 0 0 0 0 0 0 0 0 0 0 0 0 0 0 0 0 0 0
0 0 0 0 0 0 0 0 0 0 0 0 0 0 0 0 0 0 0 0 0 0 0 0 0 0 0 0 0 0 0 0 0 0 0 0 0 0 0 0 0 0 0 0
0 0 0 0 0 0 0 0 0 0 0 0 0 0 0 0 0 0 0 0 0 0 0 0 0 0 0 0 0 0 0 0 0 0 0 0 0 0 0 0 0 0 0 0
Wind_Speed
7 6 4 6 7 7 8 8 7 5 3 2 1 3 3 3 4 5 4 5 5 4 4 4 4 4 4 4 5 5 5 5 3 3 3 3 3 2 1 1 2 2 2 2
8 7 7 8 8 9 10 9 8 7 5 2 1 3 2 3 4 4 3 3 4 4 4 5 5 4 4 5 5 5 6 5 4 4 4 4 3 3 2 1 2 2 2 2
7 7 8 9 7 7 7 7 6 6 3 1 1 1 2 3 3 3 3 2 3 4 3 3 4 4 4 4 5 5 5 5 5 4 4 4 3 3 2 2 2 2 2 2
7 8 10 3 3 4 4 4 3 3 1 0 1 0 2 3 2 1 2 3 2 2 3 2 3 3 3 4 4 5 5 5 5 5 4 4 4 3 3 2 2 2 2 3
6 8 8 5 2 2 4 4 3 3 1 1 1 1 2 2 1 1 1 1 1 0 2 1 1 3 3 4 4 4 5 5 5 5 5 4 4 3 3 3 2 2 2 3
7 7 6 2 1 1 2 3 1 1 1 1 0 1 1 2 2 2 2 1 1 1 1 2 1 2 3 3 4 4 4 4 4 5 5 5 5 4 3 2 2 2 2 3
9 8 5 2 1 1 3 1 2 2 1 1 2 2 1 2 2 2 2 2 2 2 2 1 1 2 3 2 3 4 4 3 3 4 4 5 4 3 3 3 2 2 2 2
8 9 5 1 0 1 2 3 3 3 2 2 2 2 2 2 2 2 2 2 2 2 2 1 1 2 2 2 2 3 4 4 3 3 4 4 4 3 3 3 3 2 2 2
4 2 1 1 2 3 4 3 3 3 3 3 2 2 1 1 1 1 1 2 2 1 1 1 1 2 1 1 2 3 4 4 3 3 3 3 3 3 2 2 2 2 2 2
5 2 1 2 2 2 3 3 4 3 3 2 2 2 1 0 0 1 1 2 2 1 1 1 1 1 1 2 2 3 3 3 4 4 3 3 3 3 2 2 3 2 2 2
6 4 3 3 3 3 2 3 3 4 3 2 2 2 2 1 1 1 1 1 2 1 1 0 0 1 1 1 1 3 3 3 3 3 4 3 3 2 2 2 2 3 2 2
5 4 4 2 3 4 3 3 3 4 3 3 2 2 2 1 1 1 2 2 2 2 1 1 0 1 1 1 1 2 3 3 2 2 3 3 3 2 2 2 3 3 3 2
5 5 5 4 4 4 4 4 4 4 3 3 2 2 2 1 2 2 2 2 3 2 1 1 1 1 1 1 1 1 2 2 2 2 2 3 3 4 3 1 1 1 1 2
4 4 5 4 4 4 5 5 4 4 3 3 2 1 1 1 1 2 2 2 2 2 2 1 1 1 1 1 1 1 1 2 2 1 2 2 2 3 3 3 2 1 1 2
5 5 5 4 4 4 4 4 4 3 3 2 1 1 1 1 2 2 1 1 1 1 1 1 1 1 1 1 1 1 1 1 1 1 1 1 2 2 2 2 2 2 1 1
5 5 4 4 4 3 3 4 4 3 2 2 2 2 2 2 1 1 1 1 1 1 1 1 1 1 1 1 1 1 1 2 2 1 1 1 2 2 2 2 2 2 2 2
5 5 4 4 4 4 4 4 4 3 3 3 2 2 2 1 1 1 1 1 1 1 1 1 1 1 1 1 1 1 1 2 3 1 1 1 1 2 2 2 2 2 2 3
5 4 5 4 3 3 4 4 3 3 3 3 3 2 2 2 2 1 1 1 1 1 1 1 0 1 1 1 1 1 1 2 2 1 1 1 1 1 2 2 2 2 2 3
3 3 3 3 3 3 3 3 3 3 3 3 3 2 2 2 2 2 2 2 2 2 1 1 1 1 2 1 1 1 1 2 2 1 1 2 2 1 2 2 2 2 2 2
3 3 3 3 3 3 3 3 3 3 3 3 2 1 2 2 2 2 2 2 1 1 0 1 1 1 2 1 1 1 1 2 2 2 1 1 2 1 2 2 2 2 2 2
3 3 3 2 2 3 3 3 3 3 3 2 2 2 2 1 1 1 1 1 1 1 1 1 1 1 1 1 2 1 1 2 2 2 2 2 2 2 2 2 2 2 2 2
3 2 2 2 2 3 4 3 3 3 2 2 2 1 1 1 2 1 2 2 1 1 2 1 1 1 1 2 2 2 2 2 2 2 2 2 2 2 2 2 2 2 2 2
2 2 2 3 3 3 3 2 2 2 2 1 1 2 2 2 2 2 2 1 1 1 1 1 1 2 2 2 2 2 2 2 2 2 2 2 2 2 2 2 2 2 2 2
2 3 3 2 2 2 2 2 1 1 1 1 1 1 1 1 1 1 1 1 1 2 1 2 2 3 3 2 2 2 2 2 2 2 2 2 2 2 2 2 2 2 3 3
2 2 2 2 2 1 1 1 1 1 1 1 1 1 1 1 1 1 1 2 3 2 2 3 4 4 3 2 2 2 2 2 2 2 2 2 2 2 2 2 2 2 2 3
1 1 1 1 1 1 1 1 1 1 1 1 1 1 1 0 0 0 1 2 3 3 2 2 3 3 3 2 2 2 2 3 3 3 3 3 3 3 3 3 3 3 3 3
0 0 0 0 0 0 1 1 1 1 1 1 2 1 1 1 1 1 2 2 2 2 2 2 2 2 2 2 2 2 2 2 2 2 3 3 3 3 3 4 3 3 3 3
Wind_Direction
272 286 268 253 255 256 255 257 267 276 281 284 199 145 137 134 129 130 136 138 144 153 160 163 170 173 171 167 165 162 155 155 158 153 147 139 134 137 131 136 133 130 125 117
265 264 260 265 249 244 251 255 257 267 273 291 93 109 135 140 133 131 140 154 153 162 164 167 175 183 179 174 169 161 160 157 153 151 143 140 147 144 135 114 104 107 114 113
259 263 265 255 237 232 238 239 248 258 278 22 60 115 144 130 133 150 152 145 164 169 161 175 181 185 178 173 162 155 156 151 152 152 147 144 143 138 141 139 127 132 139 131
256 254 250 241 204 213 233 238 255 275 301 312 309 241 151 112 118 137 150 153 165 175 162 185 178 165 164 157 158 158 156 152 151 150 147 148 148 152 156 152 155 168 157 148
249 249 253 253 245 219 233 245 248 253 270 291 73 58 123 99 96 89 100 121 116 38 151 161 161 153 153 157 153 154 158 159 156 155 153 152 154 162 165 169 175 178 163 155
252 251 250 247 144 299 249 243 301 236 236 314 171 237 231 81 79 75 49 73 73 52 72 116 120 142 151 157 159 156 156 160 156 160 160 162 166 168 174 175 175 173 170 173
245 248 256 310 279 212 229 315 52 19 15 314 265 288 96 98 93 82 64 65 60 62 57 93 108 132 154 156 169 158 145 146 157 154 161 165 165 168 168 165 168 179 176 175
234 240 243 30 142 230 5 20 27 15 19 11 357 23 59 87 102 100 93 93 82 69 57 41 105 131 142 152 146 141 145 149 156 157 161 158 156 165 166 159 167 180 173 173
242 247 77 73 25 8 5 349 359 10 4 9 11 8 18 67 105 113 121 111 98 81 85 34 82 105 129 120 125 134 144 152 157 156 147 140 144 152 152 149 161 184 180 184
249 241 301 348 352 359 354 350 352 356 353 355 348 338 336 18 115 124 144 129 119 115 106 50 37 84 92 99 123 145 147 153 152 147 139 138 142 148 153 169 180 191 196 197
261 266 290 318 330 326 340 353 346 338 336 325 316 300 291 258 202 169 189 150 133 139 155 164 17 102 99 113 149 163 158 153 158 156 153 150 144 152 167 170 176 179 191 190
262 276 282 297 326 329 331 329 325 323 326 321 303 286 272 236 201 198 194 169 162 168 198 210 211 170 135 148 187 178 165 162 158 155 157 158 154 138 92 136 140 148 163 169
290 296 295 295 305 317 315 312 309 305 298 300 296 281 270 235 200 206 205 190 177 175 187 215 221 183 139 177 183 189 164 150 140 151 167 170 171 166 161 112 85 125 166 164
296 293 286 288 292 298 299 302 305 304 297 296 292 287 270 240 221 217 209 197 176 171 179 199 203 203 169 187 185 214 165 139 137 156 172 181 185 180 172 168 172 191 196 174
273 275 273 278 275 280 292 295 294 300 301 310 329 304 278 242 232 228 205 171 174 171 180 213 200 211 179 194 188 190 136 126 144 161 176 194 182 170 168 173 172 165 133 135
267 271 272 269 271 278 287 285 285 285 290 297 294 278 271 264 219 198 198 180 181 189 199 221 238 210 189 206 191 185 160 158 162 178 184 189 177 164 166 171 176 177 176 167
247 251 254 252 256 268 276 280 278 277 280 283 281 288 272 228 205 207 231 189 184 245 241 225 243 207 176 186 192 195 160 159 161 169 183 173 170 165 173 178 181 181 187 174
245 247 249 251 255 263 269 279 281 279 277 281 281 268 245 230 219 222 227 213 224 258 277 283 304 245 153 156 219 208 174 160 160 166 177 176 187 191 185 183 184 181 177 171
245 252 259 266 264 262 272 284 291 290 284 273 259 250 251 247 236 240 243 234 233 243 258 248 236 208 167 181 247 214 178 161 159 166 174 186 196 195 186 188 192 190 183 178
239 251 253 257 266 274 280 282 282 282 276 263 247 240 257 259 248 244 249 252 256 248 251 294 253 202 179 182 211 217 181 173 176 174 179 189 188 199 201 193 189 193 199 201
242 253 259 267 281 286 280 273 267 267 263 239 226 228 239 255 250 244 247 263 279 300 258 241 249 241 193 210 218 223 192 186 188 185 190 196 194 203 212 201 198 203 208 216
242 250 257 265 264 269 269 262 255 258 256 242 236 231 228 234 235 235 237 237 243 261 266 248 235 240 254 235 217 217 197 192 194 194 196 198 200 205 212 210 206 211 214 223
256 256 255 255 252 256 263 262 261 259 257 254 244 237 238 246 237 223 227 220 202 256 260 245 241 257 264 234 214 202 196 198 204 205 203 201 205 208 210 217 217 214 218 223
249 254 253 253 254 252 260 271 279 279 280 280 267 252 245 253 259 254 186 157 181 230 237 209 223 249 256 247 226 206 202 204 208 214 219 217 212 213 215 217 223 225 222 223
248 254 254 247 240 237 242 251 268 279 283 286 294 300 285 262 241 213 173 183 194 211 230 219 227 242 241 238 232 227 219 216 221 226 220 216 213 213 219 222 226 233 231 228
261 264 260 262 268 270 262 257 251 246 253 268 278 276 280 251 201 260 222 214 213 213 223 224 226 232 236 234 234 237 228 220 226 233 229 219 218 219 219 226 238 236 237 238
279 292 291 279 334 323 283 268 259 256 245 239 257 267 267 255 234 247 240 229 231 226 224 222 226 233 234 228 229 238 240 231 225 229 227 222 220 224 224 227 230 232 234 234